| time (UTC) | temp C | wind direction | speed KPH | gust KPH | rain 1hr cm | rain 24hr cm | rain mn cm | humidity % | barometer mb |
| 20260507030003 | 14 | 0 | 0.0 | 0.0 | 0.00 | 0.25 | 0.25 | 94 | 1006.4 |
| 20260507025503 | 14 | 0 | 0.0 | 0.0 | 0.00 | 0.25 | 0.25 | 94 | 1006.3 |
| 20260507025003 | 14 | 0 | 0.0 | 0.0 | 0.00 | 0.25 | 0.25 | 94 | 1006.2 |
| 20260507024503 | 14 | 0 | 0.0 | 0.0 | 0.00 | 0.25 | 0.25 | 94 | 1006.2 |
| 20260507024003 | 14 | 0 | 0.0 | 0.0 | 0.00 | 0.25 | 0.25 | 94 | 1006.1 |
| 20260507023503 | 14 | 0 | 0.0 | 1.6 | 0.00 | 0.25 | 0.25 | 94 | 1006.3 |
| 20260507023003 | 14 | 0 | 0.0 | 1.6 | 0.00 | 0.25 | 0.25 | 94 | 1006.2 |
| 20260507022503 | 14 | 0 | 0.0 | 4.8 | 0.00 | 0.25 | 0.25 | 94 | 1006.4 |
| 20260507022003 | 14 | 0 | 0.0 | 4.8 | 0.00 | 0.25 | 0.25 | 94 | 1006.4 |
| 20260507021503 | 14 | 0 | 0.0 | 4.8 | 0.00 | 0.25 | 0.25 | 94 | 1006.3 |
| 20260507021003 | 14 | 0 | 0.0 | 3.2 | 0.00 | 0.25 | 0.25 | 94 | 1006.4 |
| 20260507020503 | 14 | 0 | 0.0 | 9.7 | 0.00 | 0.25 | 0.25 | 94 | 1006.6 |
| 20260507020003 | 14 | 174 | 1.6 | 9.7 | 0.00 | 0.25 | 0.25 | 94 | 1006.6 |
| 20260507015503 | 14 | 0 | 0.0 | 8.0 | 0.00 | 0.25 | 0.25 | 94 | 1006.6 |
| 20260507015003 | 14 | 0 | 0.0 | 8.0 | 0.00 | 0.25 | 0.25 | 94 | 1006.7 |
| 20260507014503 | 14 | 0 | 0.0 | 6.4 | 0.00 | 0.25 | 0.25 | 94 | 1006.6 |
| 20260507014217 | 14 | 0 | 0.0 | 6.4 | 0.00 | 0.25 | 0.25 | 94 | 1006.5 |
| 20260507013503 | 14 | 0 | 0.0 | 3.2 | 0.00 | 0.25 | 0.25 | 93 | 1006.3 |
| 20260507013217 | 14 | 0 | 0.0 | 3.2 | 0.00 | 0.25 | 0.25 | 93 | 1006.2 |
| 20260507012503 | 14 | 0 | 0.0 | 4.8 | 0.00 | 0.25 | 0.25 | 93 | 1006.2 |
| 20260507012003 | 14 | 0 | 0.0 | 6.4 | 0.00 | 0.25 | 0.25 | 93 | 1006.2 |
| 20260507011503 | 14 | 0 | 0.0 | 6.4 | 0.00 | 0.25 | 0.25 | 93 | 1006.3 |
| 20260507011003 | 14 | 0 | 0.0 | 0.0 | 0.00 | 0.25 | 0.25 | 93 | 1006.4 |
| 20260507010503 | 14 | 0 | 0.0 | 0.0 | 0.00 | 0.25 | 0.25 | 93 | 1006.3 |
| 20260507010217 | 14 | 0 | 0.0 | 0.0 | 0.00 | 0.25 | 0.25 | 93 | 1006.4 |
| 20260507005503 | 14 | 0 | 0.0 | 8.0 | 0.00 | 0.25 | 0.25 | 93 | 1006.5 |
| 20260507005003 | 14 | 0 | 0.0 | 8.0 | 0.00 | 0.25 | 0.25 | 93 | 1006.6 |
| 20260507004503 | 14 | 0 | 0.0 | 1.6 | 0.00 | 0.25 | 0.25 | 93 | 1006.5 |
| 20260507004217 | 14 | 0 | 0.0 | 1.6 | 0.00 | 0.25 | 0.25 | 93 | 1006.6 |
| 20260507003718 | 14 | 0 | 0.0 | 6.4 | 0.00 | 0.25 | 0.25 | 93 | 1006.7 |
| 20260507003003 | 14 | 0 | 0.0 | 6.4 | 0.00 | 0.25 | 0.25 | 93 | 1006.6 |
| 20260507002503 | 14 | 0 | 0.0 | 8.0 | 0.00 | 0.25 | 0.25 | 93 | 1006.6 |
| 20260507002216 | 14 | 0 | 0.0 | 8.0 | 0.00 | 0.25 | 0.25 | 93 | 1006.5 |
| 20260507001503 | 14 | 0 | 0.0 | 11.3 | 0.00 | 0.25 | 0.25 | 93 | 1006.5 |
| 20260507001216 | 14 | 0 | 0.0 | 11.3 | 0.00 | 0.25 | 0.25 | 93 | 1006.5 |
| 20260507000503 | 14 | 186 | 1.6 | 9.7 | 0.00 | 0.25 | 0.25 | 93 | 1006.5 |
| 20260507000003 | 14 | 118 | 1.6 | 8.0 | 0.00 | 0.25 | 0.25 | 93 | 1006.5 |
| 20260506235503 | 14 | 150 | 1.6 | 9.7 | 0.03 | 0.25 | 0.25 | 93 | 1006.3 |
| 20260506235003 | 14 | 0 | 0.0 | 9.7 | 0.03 | 0.25 | 0.25 | 93 | 1006.4 |
| 20260506234503 | 14 | 0 | 0.0 | 0.0 | 0.03 | 0.25 | 0.25 | 93 | 1006.4 |
| 20260506234003 | 14 | 0 | 0.0 | 0.0 | 0.03 | 0.25 | 0.25 | 93 | 1006.4 |
| 20260506233503 | 14 | 0 | 0.0 | 0.0 | 0.03 | 0.25 | 0.25 | 93 | 1006.4 |
| 20260506233003 | 14 | 0 | 0.0 | 0.0 | 0.03 | 0.25 | 0.25 | 93 | 1006.4 |
| 20260506232503 | 14 | 0 | 0.0 | 8.0 | 0.03 | 0.25 | 0.25 | 93 | 1006.4 |
| 20260506232218 | 14 | 0 | 0.0 | 12.9 | 0.03 | 0.25 | 0.25 | 93 | 1006.3 |
| 20260506231503 | 14 | 167 | 1.6 | 12.9 | 0.03 | 0.25 | 0.25 | 93 | 1006.3 |
| 20260506231003 | 14 | 177 | 1.6 | 11.3 | 0.03 | 0.25 | 0.25 | 93 | 1006.4 |
| 20260506230503 | 14 | 170 | 1.6 | 11.3 | 0.03 | 0.25 | 0.25 | 92 | 1006.3 |
| 20260506230003 | 14 | 171 | 1.6 | 11.3 | 0.03 | 0.25 | 0.25 | 92 | 1006.3 |
| 20260506225503 | 14 | 167 | 1.6 | 8.0 | 0.00 | 0.23 | 0.23 | 92 | 1006.3 |
| 20260506225003 | 14 | 168 | 1.6 | 8.0 | 0.00 | 0.23 | 0.23 | 92 | 1006.2 |
| 20260506224503 | 14 | 0 | 0.0 | 4.8 | 0.00 | 0.23 | 0.23 | 92 | 1006.2 |
| 20260506224003 | 14 | 0 | 0.0 | 3.2 | 0.00 | 0.23 | 0.23 | 92 | 1006.3 |
| 20260506223503 | 14 | 0 | 0.0 | 8.0 | 0.00 | 0.23 | 0.23 | 92 | 1006.2 |
| 20260506223218 | 14 | 165 | 1.6 | 11.3 | 0.00 | 0.23 | 0.23 | 92 | 1006.2 |
| 20260506222503 | 14 | 171 | 1.6 | 11.3 | 0.05 | 0.23 | 0.23 | 92 | 1006.1 |
| 20260506222003 | 14 | 0 | 0.0 | 6.4 | 0.05 | 0.23 | 0.23 | 92 | 1006.2 |
| 20260506221504 | 14 | 0 | 0.0 | 0.0 | 0.05 | 0.23 | 0.23 | 91 | 1006.2 |
| 20260506221218 | 14 | 0 | 0.0 | 0.0 | 0.08 | 0.23 | 0.23 | 91 | 1006.2 |
| 20260506220503 | 14 | 0 | 0.0 | 6.4 | 0.08 | 0.23 | 0.23 | 91 | 1006.2 |
| 20260506220003 | 14 | 159 | 1.6 | 12.9 | 0.08 | 0.23 | 0.23 | 91 | 1006.1 |
| 20260506215503 | 14 | 162 | 1.6 | 12.9 | 0.10 | 0.23 | 0.23 | 91 | 1006.2 |
| 20260506215003 | 14 | 161 | 1.6 | 16.1 | 0.10 | 0.23 | 0.23 | 91 | 1006.2 |
| 20260506214503 | 15 | 0 | 0.0 | 16.1 | 0.10 | 0.23 | 0.23 | 91 | 1006.1 |
| 20260506214003 | 15 | 0 | 0.0 | 6.4 | 0.10 | 0.23 | 0.23 | 91 | 1006.0 |
| 20260506213716 | 15 | 0 | 0.0 | 1.6 | 0.10 | 0.23 | 0.23 | 91 | 1006.2 |
| 20260506213003 | 15 | 0 | 0.0 | 9.7 | 0.10 | 0.20 | 0.20 | 91 | 1006.3 |
| 20260506212503 | 15 | 0 | 0.0 | 4.8 | 0.08 | 0.18 | 0.18 | 91 | 1006.4 |
| 20260506212003 | 15 | 150 | 1.6 | 16.1 | 0.08 | 0.18 | 0.18 | 91 | 1006.6 |
| 20260506211503 | 15 | 148 | 1.6 | 16.1 | 0.08 | 0.18 | 0.18 | 90 | 1006.6 |
| 20260506211003 | 15 | 0 | 0.0 | 3.2 | 0.05 | 0.15 | 0.15 | 90 | 1006.7 |
| 20260506210718 | 15 | 0 | 0.0 | 3.2 | 0.05 | 0.15 | 0.15 | 90 | 1006.6 |
| 20260506210003 | 15 | 0 | 0.0 | 3.2 | 0.05 | 0.15 | 0.15 | 90 | 1006.8 |
| 20260506205718 | 15 | 0 | 0.0 | 8.0 | 0.03 | 0.13 | 0.13 | 90 | 1006.8 |
| 20260506205217 | 15 | 0 | 0.0 | 9.7 | 0.03 | 0.13 | 0.13 | 90 | 1006.6 |
| 20260506204718 | 15 | 0 | 0.0 | 9.7 | 0.03 | 0.13 | 0.13 | 90 | 1006.7 |
| 20260506204003 | 15 | 0 | 0.0 | 9.7 | 0.03 | 0.13 | 0.13 | 89 | 1006.8 |
| 20260506203503 | 15 | 140 | 1.6 | 17.7 | 0.00 | 0.10 | 0.10 | 89 | 1006.9 |
| 20260506203003 | 15 | 143 | 1.6 | 17.7 | 0.00 | 0.10 | 0.10 | 89 | 1006.9 |
| 20260506202503 | 15 | 164 | 1.6 | 12.9 | 0.00 | 0.10 | 0.10 | 89 | 1007.0 |
| 20260506202003 | 15 | 0 | 0.0 | 11.3 | 0.03 | 0.10 | 0.10 | 89 | 1006.9 |
| 20260506201503 | 15 | 0 | 0.0 | 16.1 | 0.03 | 0.10 | 0.10 | 89 | 1006.9 |
| 20260506201003 | 15 | 0 | 0.0 | 16.1 | 0.03 | 0.10 | 0.10 | 89 | 1006.9 |
| 20260506200503 | 15 | 131 | 1.6 | 16.1 | 0.03 | 0.10 | 0.10 | 89 | 1007.0 |
| 20260506200217 | 15 | 130 | 1.6 | 16.1 | 0.03 | 0.10 | 0.10 | 88 | 1007.1 |
| 20260506195718 | 15 | 0 | 0.0 | 14.5 | 0.05 | 0.10 | 0.10 | 89 | 1007.1 |
| 20260506195003 | 15 | 165 | 3.2 | 14.5 | 0.08 | 0.10 | 0.10 | 89 | 1007.3 |
| 20260506194503 | 15 | 155 | 1.6 | 12.9 | 0.08 | 0.10 | 0.10 | 89 | 1007.3 |
| 20260506194003 | 15 | 145 | 1.6 | 25.7 | 0.08 | 0.10 | 0.10 | 89 | 1007.3 |
| 20260506193503 | 15 | 0 | 0.0 | 25.7 | 0.08 | 0.10 | 0.10 | 89 | 1007.4 |
| 20260506193003 | 15 | 0 | 0.0 | 6.4 | 0.08 | 0.10 | 0.10 | 89 | 1007.4 |
| 20260506192503 | 15 | 0 | 0.0 | 0.0 | 0.10 | 0.10 | 0.10 | 88 | 1007.5 |
| 20260506192217 | 15 | 0 | 0.0 | 0.0 | 0.08 | 0.08 | 0.08 | 88 | 1007.5 |
| 20260506191503 | 15 | 0 | 0.0 | 8.0 | 0.08 | 0.08 | 0.08 | 88 | 1007.5 |
| 20260506191003 | 15 | 0 | 0.0 | 8.0 | 0.08 | 0.08 | 0.08 | 87 | 1007.6 |
| 20260506190503 | 15 | 0 | 0.0 | 6.4 | 0.08 | 0.08 | 0.08 | 86 | 1007.5 |
| 20260506190004 | 15 | 0 | 0.0 | 6.4 | 0.08 | 0.08 | 0.08 | 86 | 1007.5 |
| 20260506185503 | 15 | 0 | 0.0 | 3.2 | 0.05 | 0.05 | 0.05 | 86 | 1007.6 |
| 20260506185003 | 15 | 0 | 0.0 | 0.0 | 0.03 | 0.03 | 0.03 | 85 | 1007.6 |
| 20260506184503 | 16 | 0 | 0.0 | 8.0 | 0.03 | 0.03 | 0.03 | 85 | 1007.5 |
| 20260506184003 | 16 | 171 | 1.6 | 19.3 | 0.03 | 0.03 | 0.03 | 84 | 1007.7 |
| 20260506183503 | 16 | 176 | 1.6 | 19.3 | 0.03 | 0.03 | 0.03 | 83 | 1007.8 |
| 20260506183003 | 16 | 0 | 0.0 | 14.5 | 0.03 | 0.03 | 0.03 | 82 | 1007.8 |
| 20260506182503 | 16 | 0 | 0.0 | 14.5 | 0.00 | 0.00 | 0.00 | 81 | 1008.0 |
| 20260506182003 | 16 | 0 | 0.0 | 14.5 | 0.00 | 0.00 | 0.00 | 81 | 1008.1 |
| 20260506181503 | 16 | 200 | 1.6 | 17.7 | 0.00 | 0.00 | 0.00 | 80 | 1008.3 |
| 20260506181003 | 16 | 177 | 3.2 | 17.7 | 0.00 | 0.00 | 0.00 | 78 | 1008.5 |
| 20260506180503 | 17 | 175 | 4.8 | 14.5 | 0.00 | 0.00 | 0.00 | 77 | 1008.5 |
| 20260506180004 | 17 | 170 | 4.8 | 24.1 | 0.00 | 0.00 | 0.00 | 76 | 1008.3 |
| 20260506175503 | 17 | 171 | 3.2 | 24.1 | 0.00 | 0.00 | 0.00 | 75 | 1008.3 |
| 20260506175003 | 17 | 0 | 0.0 | 14.5 | 0.00 | 0.00 | 0.00 | 74 | 1008.7 |
| 20260506174717 | 17 | 0 | 0.0 | 12.9 | 0.00 | 0.00 | 0.00 | 74 | 1008.5 |
| 20260506174003 | 17 | 186 | 3.2 | 27.4 | 0.00 | 0.00 | 0.00 | 74 | 1008.6 |
| 20260506173717 | 17 | 193 | 3.2 | 27.4 | 0.00 | 0.00 | 0.00 | 73 | 1008.7 |
| 20260506173003 | 17 | 184 | 4.8 | 25.7 | 0.00 | 0.00 | 0.00 | 72 | 1008.6 |
| 20260506172503 | 18 | 171 | 4.8 | 25.7 | 0.00 | 0.00 | 0.00 | 71 | 1008.7 |
| 20260506172003 | 18 | 162 | 3.2 | 19.3 | 0.00 | 0.00 | 0.00 | 71 | 1008.9 |
| 20260506171503 | 18 | 175 | 3.2 | 20.9 | 0.00 | 0.00 | 0.00 | 70 | 1009.0 |
| 20260506171218 | 18 | 186 | 3.2 | 20.9 | 0.00 | 0.00 | 0.00 | 70 | 1008.9 |
| 20260506170503 | 18 | 0 | 0.0 | 11.3 | 0.00 | 0.00 | 0.00 | 70 | 1009.0 |
| 20260506170003 | 18 | 0 | 0.0 | 16.1 | 0.00 | 0.00 | 0.00 | 70 | 1009.1 |
| 20260506165503 | 18 | 183 | 3.2 | 17.7 | 0.00 | 0.00 | 0.00 | 70 | 1009.0 |
| 20260506165003 | 18 | 186 | 3.2 | 25.7 | 0.00 | 0.00 | 0.00 | 69 | 1009.0 |
| 20260506164503 | 19 | 187 | 3.2 | 25.7 | 0.00 | 0.00 | 0.00 | 68 | 1008.8 |
| 20260506164217 | 19 | 162 | 1.6 | 16.1 | 0.00 | 0.00 | 0.00 | 68 | 1008.8 |
| 20260506163503 | 20 | 177 | 3.2 | 24.1 | 0.00 | 0.00 | 0.00 | 68 | 1008.9 |
| 20260506163003 | 20 | 194 | 4.8 | 25.7 | 0.00 | 0.00 | 0.00 | 67 | 1009.0 |
| 20260506162503 | 20 | 190 | 3.2 | 25.7 | 0.00 | 0.00 | 0.00 | 66 | 1009.0 |
| 20260506162217 | 20 | 180 | 1.6 | 24.1 | 0.00 | 0.00 | 0.00 | 66 | 1009.1 |
| 20260506161503 | 20 | 0 | 0.0 | 17.7 | 0.00 | 0.00 | 0.00 | 68 | 1009.1 |
| 20260506161003 | 20 | 178 | 1.6 | 17.7 | 0.00 | 0.00 | 0.00 | 69 | 1009.3 |
| 20260506160503 | 20 | 194 | 1.6 | 17.7 | 0.00 | 0.00 | 0.00 | 67 | 1009.5 |
| 20260506160003 | 20 | 183 | 1.6 | 12.9 | 0.00 | 0.00 | 0.00 | 67 | 1009.4 |
| 20260506155503 | 20 | 155 | 1.6 | 12.9 | 0.00 | 0.00 | 0.00 | 66 | 1009.4 |
| 20260506155003 | 20 | 134 | 1.6 | 16.1 | 0.00 | 0.00 | 0.00 | 66 | 1009.5 |
| 20260506154503 | 20 | 175 | 3.2 | 16.1 | 0.00 | 0.00 | 0.00 | 66 | 1009.5 |
| 20260506154003 | 20 | 178 | 4.8 | 19.3 | 0.00 | 0.00 | 0.00 | 66 | 1009.5 |
| 20260506153503 | 20 | 175 | 3.2 | 19.3 | 0.00 | 0.00 | 0.00 | 64 | 1009.6 |
| 20260506153003 | 21 | 180 | 3.2 | 14.5 | 0.00 | 0.00 | 0.00 | 63 | 1009.4 |
| 20260506152503 | 21 | 172 | 3.2 | 17.7 | 0.00 | 0.00 | 0.00 | 64 | 1009.4 |
| 20260506152003 | 21 | 164 | 3.2 | 20.9 | 0.00 | 0.00 | 0.00 | 63 | 1009.4 |
| 20260506151503 | 21 | 152 | 3.2 | 20.9 | 0.00 | 0.00 | 0.00 | 62 | 1009.4 |
| 20260506151003 | 21 | 142 | 1.6 | 12.9 | 0.00 | 0.00 | 0.00 | 62 | 1009.4 |
| 20260506150503 | 21 | 187 | 3.2 | 14.5 | 0.00 | 0.00 | 0.00 | 66 | 1009.6 |
| 20260506150004 | 21 | 199 | 3.2 | 14.5 | 0.00 | 0.00 | 0.00 | 66 | 1009.5 |
| 20260506145503 | 21 | 169 | 1.6 | 16.1 | 0.00 | 0.00 | 0.00 | 65 | 1009.6 |
| 20260506145003 | 20 | 154 | 1.6 | 22.5 | 0.00 | 0.00 | 0.00 | 65 | 1009.5 |
| 20260506144503 | 21 | 146 | 1.6 | 22.5 | 0.00 | 0.00 | 0.00 | 64 | 1009.6 |
| 20260506144003 | 21 | 166 | 1.6 | 19.3 | 0.00 | 0.00 | 0.00 | 65 | 1009.7 |
| 20260506143718 | 21 | 167 | 1.6 | 19.3 | 0.00 | 0.00 | 0.00 | 66 | 1009.8 |
| 20260506143003 | 20 | 215 | 1.6 | 14.5 | 0.00 | 0.00 | 0.00 | 66 | 1009.9 |
| 20260506142503 | 20 | 207 | 1.6 | 16.1 | 0.00 | 0.00 | 0.00 | 66 | 1009.8 |
| 20260506142003 | 20 | 0 | 0.0 | 16.1 | 0.00 | 0.00 | 0.00 | 66 | 1009.8 |
| 20260506141503 | 20 | 0 | 0.0 | 8.0 | 0.00 | 0.00 | 0.00 | 67 | 1009.8 |
| 20260506141003 | 20 | 170 | 1.6 | 14.5 | 0.00 | 0.00 | 0.00 | 68 | 1009.8 |
| 20260506140718 | 20 | 169 | 1.6 | 14.5 | 0.00 | 0.00 | 0.00 | 69 | 1009.8 |
| 20260506140003 | 19 | 178 | 1.6 | 9.7 | 0.00 | 0.00 | 0.00 | 70 | 1009.8 |
| 20260506135503 | 19 | 163 | 3.2 | 22.5 | 0.00 | 0.00 | 0.00 | 70 | 1009.7 |
| 20260506135217 | 19 | 158 | 1.6 | 22.5 | 0.00 | 0.00 | 0.00 | 70 | 1009.7 |
| 20260506134503 | 18 | 0 | 0.0 | 16.1 | 0.00 | 0.00 | 0.00 | 71 | 1009.6 |
| 20260506134003 | 18 | 167 | 3.2 | 16.1 | 0.00 | 0.00 | 0.00 | 71 | 1009.8 |
| 20260506133503 | 18 | 174 | 3.2 | 16.1 | 0.00 | 0.00 | 0.00 | 72 | 1009.5 |
| 20260506133003 | 18 | 0 | 0.0 | 16.1 | 0.00 | 0.00 | 0.00 | 73 | 1009.5 |
| 20260506132503 | 18 | 0 | 0.0 | 4.8 | 0.00 | 0.00 | 0.00 | 72 | 1009.8 |
| 20260506132003 | 18 | 0 | 0.0 | 11.3 | 0.00 | 0.00 | 0.00 | 73 | 1009.8 |
| 20260506131503 | 18 | 159 | 1.6 | 12.9 | 0.00 | 0.00 | 0.00 | 74 | 1009.8 |
| 20260506131003 | 17 | 163 | 1.6 | 12.9 | 0.00 | 0.00 | 0.00 | 74 | 1009.8 |
| 20260506130503 | 17 | 173 | 1.6 | 12.9 | 0.00 | 0.00 | 0.00 | 76 | 1010.0 |
| 20260506130004 | 17 | 173 | 1.6 | 11.3 | 0.00 | 0.00 | 0.00 | 77 | 1010.1 |
| 20260506125503 | 17 | 172 | 1.6 | 19.3 | 0.00 | 0.00 | 0.00 | 77 | 1010.2 |
| 20260506125003 | 16 | 174 | 1.6 | 19.3 | 0.00 | 0.00 | 0.00 | 77 | 1010.1 |
| 20260506124503 | 16 | 175 | 1.6 | 12.9 | 0.00 | 0.00 | 0.00 | 78 | 1010.1 |
| 20260506124003 | 16 | 164 | 1.6 | 12.9 | 0.00 | 0.00 | 0.00 | 78 | 1010.2 |
| 20260506123503 | 16 | 159 | 1.6 | 12.9 | 0.00 | 0.00 | 0.00 | 78 | 1010.0 |
| 20260506123218 | 16 | 165 | 1.6 | 12.9 | 0.00 | 0.00 | 0.00 | 79 | 1010.1 |
| 20260506122503 | 16 | 168 | 1.6 | 20.9 | 0.00 | 0.00 | 0.00 | 79 | 1010.2 |
| 20260506122003 | 16 | 165 | 1.6 | 20.9 | 0.00 | 0.00 | 0.00 | 79 | 1010.2 |
| 20260506121717 | 16 | 148 | 1.6 | 14.5 | 0.00 | 0.00 | 0.00 | 79 | 1010.3 |
| 20260506121218 | 16 | 178 | 1.6 | 11.3 | 0.00 | 0.00 | 0.00 | 81 | 1010.0 |
| 20260506120503 | 16 | 0 | 0.0 | 16.1 | 0.00 | 0.00 | 0.00 | 82 | 1010.1 |
| 20260506120003 | 16 | 0 | 0.0 | 16.1 | 0.00 | 0.00 | 0.00 | 82 | 1010.1 |
| 20260506115503 | 15 | 0 | 0.0 | 0.0 | 0.00 | 0.00 | 0.00 | 83 | 1010.2 |
| 20260506115003 | 15 | 0 | 0.0 | 0.0 | 0.00 | 0.00 | 0.00 | 83 | 1010.2 |
| 20260506114503 | 15 | 0 | 0.0 | 11.3 | 0.00 | 0.00 | 0.00 | 84 | 1010.3 |
| 20260506114003 | 15 | 163 | 1.6 | 12.9 | 0.00 | 0.00 | 0.00 | 84 | 1010.3 |
| 20260506113503 | 15 | 181 | 1.6 | 12.9 | 0.00 | 0.00 | 0.00 | 84 | 1010.3 |
| 20260506113003 | 15 | 177 | 1.6 | 11.3 | 0.00 | 0.00 | 0.00 | 84 | 1010.4 |
| 20260506112503 | 15 | 178 | 1.6 | 11.3 | 0.00 | 0.00 | 0.00 | 84 | 1010.3 |
| 20260506112003 | 15 | 0 | 0.0 | 11.3 | 0.00 | 0.00 | 0.00 | 85 | 1010.2 |
| 20260506111503 | 15 | 0 | 0.0 | 11.3 | 0.00 | 0.00 | 0.00 | 85 | 1010.3 |
| 20260506111003 | 15 | 0 | 0.0 | 3.2 | 0.00 | 0.00 | 0.00 | 85 | 1010.4 |
| 20260506110503 | 15 | 0 | 0.0 | 0.0 | 0.00 | 0.00 | 0.00 | 86 | 1010.5 |
| 20260506110217 | 15 | 0 | 0.0 | 0.0 | 0.00 | 0.00 | 0.00 | 86 | 1010.5 |
| 20260506105503 | 14 | 0 | 0.0 | 6.4 | 0.00 | 0.00 | 0.00 | 86 | 1010.3 |
| 20260506105003 | 14 | 0 | 0.0 | 6.4 | 0.00 | 0.00 | 0.00 | 86 | 1010.4 |
| 20260506104503 | 14 | 0 | 0.0 | 0.0 | 0.00 | 0.00 | 0.00 | 86 | 1010.2 |
| 20260506104217 | 14 | 0 | 0.0 | 0.0 | 0.00 | 0.00 | 0.00 | 86 | 1010.2 |
| 20260506103503 | 14 | 0 | 0.0 | 3.2 | 0.00 | 0.00 | 0.00 | 86 | 1010.3 |
| 20260506103003 | 14 | 0 | 0.0 | 3.2 | 0.00 | 0.00 | 0.00 | 86 | 1010.2 |
| 20260506102503 | 14 | 0 | 0.0 | 1.6 | 0.00 | 0.00 | 0.00 | 85 | 1010.2 |
| 20260506102003 | 14 | 0 | 0.0 | 0.0 | 0.00 | 0.00 | 0.00 | 85 | 1010.1 |
| 20260506101503 | 14 | 0 | 0.0 | 0.0 | 0.00 | 0.00 | 0.00 | 85 | 1010.1 |
| 20260506101003 | 15 | 0 | 0.0 | 8.0 | 0.00 | 0.00 | 0.00 | 85 | 1010.1 |
| 20260506100503 | 15 | 0 | 0.0 | 8.0 | 0.00 | 0.00 | 0.00 | 85 | 1010.1 |
| 20260506100003 | 15 | 0 | 0.0 | 8.0 | 0.00 | 0.00 | 0.00 | 85 | 1010.1 |
| 20260506095718 | 15 | 0 | 0.0 | 0.0 | 0.00 | 0.00 | 0.00 | 85 | 1010.1 |
| 20260506095003 | 15 | 0 | 0.0 | 8.0 | 0.00 | 0.00 | 0.00 | 85 | 1010.1 |
| 20260506094503 | 15 | 0 | 0.0 | 6.4 | 0.00 | 0.00 | 0.00 | 84 | 1010.1 |
| 20260506094003 | 15 | 0 | 0.0 | 0.0 | 0.00 | 0.00 | 0.00 | 84 | 1010.1 |
| 20260506093503 | 15 | 0 | 0.0 | 0.0 | 0.00 | 0.00 | 0.00 | 84 | 1010.0 |
| 20260506093003 | 15 | 0 | 0.0 | 3.2 | 0.00 | 0.00 | 0.00 | 84 | 1010.0 |
| 20260506092503 | 15 | 325 | 1.6 | 12.9 | 0.00 | 0.00 | 0.00 | 83 | 1010.1 |
| 20260506092003 | 15 | 323 | 1.6 | 12.9 | 0.00 | 0.00 | 0.00 | 83 | 1010.1 |
| 20260506091503 | 15 | 0 | 0.0 | 14.5 | 0.00 | 0.00 | 0.00 | 83 | 1010.0 |
| 20260506091003 | 15 | 179 | 1.6 | 14.5 | 0.00 | 0.00 | 0.00 | 83 | 1010.1 |
| 20260506090503 | 15 | 179 | 3.2 | 20.9 | 0.00 | 0.00 | 0.00 | 83 | 1010.1 |
| 20260506090003 | 15 | 180 | 1.6 | 20.9 | 0.00 | 0.00 | 0.00 | 83 | 1010.2 |
| 20260506085503 | 15 | 0 | 0.0 | 8.0 | 0.00 | 0.00 | 0.00 | 82 | 1010.2 |
| 20260506085003 | 15 | 0 | 0.0 | 3.2 | 0.00 | 0.00 | 0.00 | 82 | 1010.3 |
| 20260506084503 | 15 | 0 | 0.0 | 6.4 | 0.00 | 0.00 | 0.00 | 82 | 1010.2 |
| 20260506084003 | 15 | 0 | 0.0 | 6.4 | 0.00 | 0.00 | 0.00 | 82 | 1010.2 |
| 20260506083503 | 15 | 0 | 0.0 | 9.7 | 0.00 | 0.00 | 0.00 | 82 | 1010.3 |
| 20260506083003 | 15 | 172 | 1.6 | 16.1 | 0.00 | 0.00 | 0.00 | 82 | 1010.4 |
| 20260506082503 | 15 | 163 | 1.6 | 16.1 | 0.00 | 0.00 | 0.00 | 82 | 1010.4 |
| 20260506082003 | 15 | 0 | 0.0 | 12.9 | 0.00 | 0.00 | 0.00 | 81 | 1010.5 |
| 20260506081718 | 15 | 0 | 0.0 | 12.9 | 0.00 | 0.00 | 0.00 | 82 | 1010.4 |
| 20260506081003 | 15 | 0 | 0.0 | 12.9 | 0.00 | 0.00 | 0.00 | 81 | 1010.4 |
| 20260506080503 | 15 | 0 | 0.0 | 12.9 | 0.00 | 0.00 | 0.00 | 81 | 1010.4 |
| 20260506080218 | 15 | 0 | 0.0 | 12.9 | 0.00 | 0.00 | 0.00 | 81 | 1010.4 |
| 20260506073503 | 15 | 188 | 1.6 | 14.5 | 0.00 | 0.00 | 0.00 | 80 | 1010.4 |
| 20260506073003 | 15 | 191 | 1.6 | 12.9 | 0.00 | 0.00 | 0.00 | 80 | 1010.4 |
| 20260506072503 | 15 | 187 | 3.2 | 17.7 | 0.00 | 0.00 | 0.00 | 80 | 1010.4 |
| 20260506072003 | 15 | 144 | 1.6 | 17.7 | 0.00 | 0.00 | 0.00 | 80 | 1010.4 |
| 20260506071503 | 15 | 145 | 1.6 | 16.1 | 0.00 | 0.00 | 0.00 | 80 | 1010.3 |
| 20260506071003 | 15 | 156 | 1.6 | 16.1 | 0.00 | 0.00 | 0.00 | 80 | 1010.3 |
| 20260506070503 | 15 | 160 | 1.6 | 19.3 | 0.00 | 0.00 | 0.00 | 80 | 1010.2 |
| 20260506062003 | 15 | 161 | 3.2 | 22.5 | 0.00 | 0.00 | 0.00 | 79 | 1010.3 |
| 20260506061503 | 15 | 137 | 1.6 | 22.5 | 0.00 | 0.00 | 0.00 | 79 | 1010.4 |
| 20260506061003 | 15 | 167 | 1.6 | 12.9 | 0.00 | 0.00 | 0.00 | 78 | 1010.3 |
| 20260506060503 | 15 | 175 | 1.6 | 12.9 | 0.00 | 0.00 | 0.00 | 78 | 1010.4 |
| 20260506051003 | 16 | 167 | 1.6 | 14.5 | 0.00 | 0.00 | 0.00 | 75 | 1010.8 |
| 20260506050503 | 16 | 152 | 1.6 | 14.5 | 0.00 | 0.00 | 0.00 | 74 | 1010.8 |
| 20260506045003 | 16 | 149 | 1.6 | 14.5 | 0.00 | 0.00 | 0.00 | 73 | 1010.8 |
| 20260506044503 | 16 | 164 | 1.6 | 16.1 | 0.00 | 0.00 | 0.00 | 73 | 1010.8 |
| 20260506044217 | 16 | 176 | 1.6 | 16.1 | 0.00 | 0.00 | 0.00 | 73 | 1010.7 |
| 20260506043503 | 16 | 162 | 3.2 | 16.1 | 0.00 | 0.00 | 0.00 | 73 | 1011.0 |
| 20260506043003 | 16 | 193 | 1.6 | 16.1 | 0.00 | 0.00 | 0.00 | 72 | 1011.0 |
| 20260506042718 | 16 | 181 | 1.6 | 14.5 | 0.00 | 0.00 | 0.00 | 72 | 1010.9 |
| 20260506042003 | 16 | 167 | 1.6 | 20.9 | 0.00 | 0.00 | 0.00 | 72 | 1010.9 |
| 20260506041503 | 17 | 0 | 0.0 | 20.9 | 0.00 | 0.00 | 0.00 | 71 | 1010.9 |
| 20260506041003 | 17 | 0 | 0.0 | 19.3 | 0.00 | 0.00 | 0.00 | 71 | 1011.0 |
| 20260506040503 | 17 | 173 | 1.6 | 22.5 | 0.00 | 0.00 | 0.00 | 71 | 1010.9 |
| 20260506040003 | 17 | 161 | 3.2 | 22.5 | 0.00 | 0.00 | 0.00 | 70 | 1010.9 |
| 20260506035503 | 17 | 183 | 4.8 | 16.1 | 0.00 | 0.00 | 0.00 | 70 | 1011.0 |
| 20260506035003 | 17 | 184 | 3.2 | 17.7 | 0.00 | 0.00 | 0.00 | 70 | 1011.0 |
| 20260506034503 | 17 | 159 | 1.6 | 17.7 | 0.00 | 0.00 | 0.00 | 70 | 1011.0 |
| 20260506034003 | 17 | 186 | 1.6 | 14.5 | 0.00 | 0.00 | 0.00 | 69 | 1010.8 |
| 20260506033503 | 17 | 188 | 1.6 | 14.5 | 0.00 | 0.00 | 0.00 | 69 | 1011.0 |
| 20260506033004 | 17 | 0 | 0.0 | 6.4 | 0.00 | 0.00 | 0.00 | 69 | 1011.0 |
| 20260506032503 | 17 | 0 | 0.0 | 11.3 | 0.00 | 0.00 | 0.00 | 68 | 1010.9 |
| 20260506032003 | 17 | 0 | 0.0 | 11.3 | 0.00 | 0.00 | 0.00 | 68 | 1010.9 |
| 20260506031503 | 17 | 140 | 1.6 | 11.3 | 0.00 | 0.00 | 0.00 | 68 | 1010.9 |
| 20260506031003 | 17 | 138 | 1.6 | 11.3 | 0.00 | 0.00 | 0.00 | 68 | 1010.8 |
| 20260506030503 | 17 | 154 | 1.6 | 9.7 | 0.00 | 0.00 | 0.00 | 68 | 1010.6 |